Location: Helds Island Access
(38.5526°N, 91.5997°W)
Time: 10:11:51
(UTC-05:00)

Daily predictions for brighter satellites

Satellite Brightness Start Highest point End
(mag) Time Altitude Azimuth Time Altitude Azimuth Time Altitude Azimuth
Meteor 2-2 Rocket 4.4 20:59:20 10° N 21:05:23 85° E 21:11:25 10° S
ERS-1 Rocket 3.1 21:01:37 10° SSE 21:06:35 63° ENE 21:11:33 10° N
ERBS 3.6 21:03:47 10° S 21:06:35 22° ESE 21:09:21 10° ENE
SL-16 R/B 3.7 21:02:08 10° NW 21:07:12 35° WSW 21:12:16 10° SSW
Meteor 2-20 Rocket 4.5 21:01:09 10° S 21:07:15 67° E 21:13:20 10° NNE
Envisat 3.5 21:09:14 10° SE 21:14:01 44° ENE 21:18:50 10° N
Cosmos 1674 2.8 21:10:35 10° S 21:14:24 82° W 21:18:18 10° N
SL-14 R/B 4.4 21:15:02 10° SSE 21:18:20 26° E 21:21:41 10° NNE
Cosmos 304 Rocket 3.9 21:14:15 10° NNW 21:19:06 82° WSW 21:23:52 10° SSE
NOSS 3-1 (C) 3.3 21:14:00 10° SSW 21:19:47 76° ESE 21:26:11 10° NE
Cosmos 1908 3.5 21:16:18 10° NNW 21:20:13 72° W 21:24:07 10° S
Cosmos 1805 Rocket 3.9 21:19:52 10° SSE 21:24:07 47° E 21:28:23 10° NNE
SJ-11-01 4.4 21:20:20 10° SSE 21:25:02 87° WSW 21:29:49 10° NNW
PSLV R/B 4.4 21:23:16 12° SE 21:25:30 25° ENE 21:28:05 10° NNE
Cosmos 2227 Rocket 3.2 21:24:20 10° SSE 21:28:48 25° ESE 21:33:17 10° NE
Cosmos 1937 Rocket 4.1 21:26:27 10° SSE 21:31:12 36° E 21:35:56 10° NE
Cosmos 1300 3.2 21:29:04 10° N 21:32:45 42° E 21:35:46 14° SSE
Cosmos 2112 Rocket 4.1 21:28:30 10° NNW 21:33:46 79° WSW 21:39:02 10° SSE
Cosmos 2266 Rocket 4.4 21:30:25 10° SSW 21:36:40 68° W 21:42:49 10° N
H-2A R/B 2.3 21:36:51 10° S 21:41:23 79° WSW 21:45:55 10° NNW
Cosmos 292 Rocket 4.4 21:38:15 10° N 21:42:46 40° ENE 21:46:00 17° SE
SPOT 5 2.9 21:40:03 13° SSE 21:44:07 66° ENE 21:48:59 10° N
Cosmos 1707 Rocket 3.6 21:40:23 10° N 21:44:44 62° E 21:48:17 15° SSE
SL-16 R/B 4.3 21:43:38 10° NNE 21:46:36 14° NE 21:49:34 10° E
H-2A R/B 4.1 21:43:15 10° SSW 21:46:55 28° SE 21:59:18 10° E
Cosmos 1666 Rocket 3.6 21:42:51 10° S 21:47:10 62° E 21:51:34 10° NNE
Cosmos 2298 Rocket 4.0 21:42:18 10° SSW 21:47:37 88° ESE 21:52:58 10° NNE
ARGOS 4.0 21:44:45 16° SE 21:48:28 35° ENE 21:53:18 10° N
Meteor 1-11 4.2 21:43:42 10° S 21:49:27 76° E 21:55:10 10° NNE
CZ-4B R/B 3.9 21:45:05 10° NNE 21:50:06 45° E 21:54:30 13° S
Cosmos 2333 Rocket 3.1 21:46:35 10° N 21:51:55 37° ENE 21:55:43 18° ESE
OTV 4 0.5 21:50:19 10° WSW 21:53:12 50° SSE 21:54:46 23° E
Hubble Space Telescope 2.3 21:51:54 10° SSW 21:54:41 18° S 21:54:58 17° SSE
Cosmos 1455 4.0 21:52:07 10° NNE 21:54:44 17° ENE 21:55:49 16° E
Cosmos 2297 Rocket 3.1 21:51:53 17° SSE 21:55:12 28° ESE 21:59:57 10° NE
Cosmos 2315 Rocket 4.1 21:49:13 10° N 21:55:26 81° W 22:01:37 10° S
Cosmos 1726 2.1 21:53:05 10° N 21:56:52 67° E 21:59:13 21° SSE
DELTA 2 R/B(2) 3.6 21:56:44 10° W 21:58:21 58° N 21:59:30 23° ENE
Cosmos 2219 Rocket 2.4 21:53:59 10° NNW 21:59:29 55° ENE 22:03:06 21° SE
SL-23 DEB 4.3 21:54:56 10° WNW 21:59:45 51° SW 22:01:40 24° SSE
Cosmos 1470 Rocket 4.3 21:59:12 23° SE 22:01:05 33° E 22:04:57 10° NNE
Cosmos 1933 Rocket 4.4 22:00:00 22° SE 22:01:59 33° E 22:06:00 10° NNE
COSMOS 2428 3.0 21:58:16 10° NNW 22:03:54 67° WSW 22:08:25 16° S
Meteor 1-4 Rocket 2.7 22:01:36 10° N 22:05:17 59° E 22:06:57 29° SSE
NOSS 0 Rocket 4.2 21:59:36 10° NNW 22:05:40 57° ENE 22:09:35 22° SE
Lacrosse 4 Rocket 3.7 22:03:52 10° NNE 22:06:32 15° NE 22:08:55 11° E
Cosmos 2058 3.8 22:02:36 10° SSW 22:06:33 48° W 22:10:33 10° N
SL-08 RB Rocket 4.4 22:05:02 23° SE 22:07:12 39° ENE 22:11:23 10° N
Nadezhda 1 Rocket 4.5 22:03:06 10° N 22:08:52 43° ENE 22:12:17 23° SE
SL-08 R/B 4.5 22:09:43 13° S 22:15:18 74° E 22:21:36 10° N
Terra 3.2 22:14:21 20° ESE 22:16:12 25° ENE 22:20:03 10° NNE
H-2A R/B 3.1 22:15:25 22° ESE 22:17:57 33° ENE 22:22:46 10° N
COSMOS 2455 4.0 22:13:04 10° N 22:18:21 30° NE 22:21:50 18° E
Cosmos 1898 Rocket 4.2 22:13:57 10° SSW 22:19:01 55° WNW 22:24:09 10° N
Cosmos 1745 Rocket 3.9 22:16:53 17° S 22:21:46 71° E 22:27:55 10° NNE
Delta 2 Rocket 3.6 22:18:27 10° W 22:21:49 34° SSW 22:22:04 34° S
Tiangong 1 2.5 22:20:01 10° WNW 22:22:56 37° N 22:25:23 13° ENE
Cosmos 1980 3.8 22:18:22 10° NNW 22:23:59 64° ENE 22:26:49 29° SE
Cosmos 1125 Rocket 4.3 22:23:43 29° SE 22:25:07 33° E 22:29:51 10° NE
NOSS 3-1 (A) 4.4 22:19:57 10° SW 22:25:39 49° NW 22:31:59 10° NNE
SPOT 1/Viking Rocket 3.5 22:27:31 26° S 22:30:31 81° WSW 22:35:42 10° NNW
OAO 2 Rocket 3.4 22:30:28 10° WSW 22:35:42 60° S 22:38:02 32° ESE
Cosmos 2237 Rocket 2.2 22:30:01 10° NNW 22:35:43 73° ENE 22:38:17 34° SE
Sich 1 4.3 22:32:00 10° SSW 22:36:09 40° W 22:40:19 10° N
Cosmos 1626 2.0 22:36:48 52° SSE 22:37:32 68° E 22:41:16 10° NNE
Cosmos 1869 3.6 22:34:39 10° N 22:38:35 48° E 22:39:14 44° ESE
Cosmos 1271 Rocket 3.3 22:35:24 10° NNW 22:39:10 51° W 22:40:45 30° SSW
Cosmos 1386 Rocket 4.3 22:36:10 27° S 22:39:34 71° E 22:45:34 10° NNE
Cosmos 2082 3.7 22:34:52 10° SSW 22:40:36 83° WNW 22:46:22 10° NNE
YAOGAN 6 3.8 22:39:27 24° SSW 22:41:01 37° W 22:44:23 10° NNW
Iridium 2 3.9 22:40:38 34° SSW 22:42:09 67° W 22:45:59 10° N
CARTOSAT-1 4.0 22:42:07 39° ESE 22:43:02 46° ENE 22:47:10 10° N
ERBS 4.4 22:40:09 10° WSW 22:43:18 30° NW 22:46:25 10° NNE
Cosmos 1862 Rocket 3.4 22:39:41 10° N 22:44:01 72° E 22:45:04 49° SSE
ATLAS 2AS CENTAUR R/B 3.0 22:40:05 10° SSW 22:47:32 89° WNW 22:55:37 10° NNE
NOAA 11 4.3 22:45:11 30° S 22:47:55 71° WSW 22:53:24 10° NNW
IGS 5A 3.8 22:50:56 45° E 22:51:29 48° ENE 22:55:31 10° N
CZ-4C R/B 2.8 22:52:05 80° S 22:52:16 89° SW 22:55:46 10° NNW
CZ-4 R/B 4.4 22:49:54 10° N 22:54:43 58° WNW 22:58:03 19° SSW
ATLAS 3B R/B 2.9 22:50:52 10° NNW 22:57:46 59° NE 23:00:41 33° ESE
SAR-Lupe-2 4.0 22:58:30 48° ENE 22:58:30 48° ENE 23:01:47 10° N
BREEZE-M DEB (TANK) 3.6 23:02:24 41° E 23:02:24 41° E 23:07:06 10° ENE
Cosmos 192 4.3 23:00:38 10° NNW 23:05:33 76° WSW 23:06:44 52° S
Cosmos 2181 Rocket 4.3 22:59:17 10° N 23:05:35 55° E 23:07:35 40° SE
Cosmos 1869 Rocket 4.0 23:10:53 48° E 23:10:53 48° E 23:15:04 10° NNE
Cosmos 2227 Rocket 3.3 23:07:11 10° SW 23:12:32 43° WNW 23:17:56 10° N
Cosmos 468 4.5 23:07:33 10° NNW 23:12:54 85° WSW 23:14:09 54° S
COS B Rocket 4.3 23:09:44 10° NNE 23:13:01 36° ENE 23:13:01 36° ENE
CZ-4C R/B 4.4 23:09:16 10° NNW 23:14:53 25° NE 23:20:27 12° E
FALCON 9 R/B 3.6 22:52:00 10° W 23:17:07 70° SSW 23:20:47 34° ESE
DMSP B5D2-2 4.1 23:13:25 10° N 23:18:39 80° WNW 23:20:21 44° SSW
Spot 2 4.3 23:14:16 10° NNE 23:19:19 87° E 23:20:15 60° S
NOSS 2-3 (E) 3.8 23:21:05 55° SSW 23:22:11 83° ESE 23:27:41 10° NE
Okean 1-7 3.6 23:21:54 10° N 23:25:39 45° ENE 23:25:39 45° ENE
Cosmos 1455 3.8 23:27:13 10° NNW 23:30:26 26° W 23:30:51 26° WSW
SL-16 R/B 2.1 23:25:47 10° NNW 23:31:30 88° WSW 23:32:32 62° SSE
Cosmos 2227 4.4 23:35:53 52° ESE 23:35:53 52° ESE 23:41:20 10° NNE
Cosmos 2333 Rocket 3.5 23:31:07 10° NW 23:36:01 30° WSW 23:37:44 25° SW
Cosmos 2297 Rocket 3.5 23:33:50 10° SW 23:39:02 37° WNW 23:44:17 10° N
SeaSat 1 3.8 23:40:22 26° ENE 23:41:25 29° NE 23:45:37 10° N
Cosmos 2219 Rocket 4.1 23:39:11 10° WNW 23:42:55 18° W 23:44:50 16° SW
Cosmos 44 Rocket 3.7 23:43:24 44° SW 23:44:58 68° WNW 23:50:12 10° NNE
Uosat 12 SS-18 rocket 4.3 23:45:39 68° ENE 23:45:39 68° ENE 23:49:45 10° NE
Cosmos 1703 Rocket 3.8 23:41:16 10° NNW 23:45:29 59° W 23:45:29 59° W
Lacrosse 4 Rocket 1.9 23:41:14 10° NW 23:45:16 56° W 23:45:16 56° W
Cosmos 2251 Rocket 4.1 23:40:38 10° N 23:45:44 45° ENE 23:46:13 44° E
NOSS 2-3 (C) 4.4 23:47:40 35° WSW 23:49:36 59° NW 23:55:10 10° NNE
Cosmos 1933 4.2 23:46:01 10° NNW 23:49:34 43° WNW 23:49:34 43° WNW
Terra 3.0 23:53:15 31° WSW 23:53:46 31° W 23:58:01 10° NW
